Location: East Arcadia
(34.1056°N, 118.0176°W)
Time: 00:44:30
(UTC+00:00)

Spot 4 Rocket - Pass Details

Date: 01 April 2023
Orbit: 773 x 780 km, 98.8° (Epoch: 08 June)

Event Time Altitude Azimuth Distance (km) Brightness Sun altitude
Rises 13:08:45 0° 6° (N) 3,269 7.5 -7.1°
Reaches altitude 10° 13:11:08 10° 0° (N) 2,338 6.7 -6.7°
Maximum altitude 13:16:04 48° 288° (WNW) 1,017 4.3 -5.6°
Drops below altitude 10° 13:20:58 10° 215° (SW) 2,325 6.1 -4.6°
Sets 13:23:20 0° 209° (SSW) 3,249 6.9 -4.2°
